Powrót do katalogu

CZ-6A DEB

AktywnyPO
NORAD 60758·DEBRIS·🇨🇳 China

Wystrzelony Aug 6, 2024 z Taiyuan Satellite Launch Center

Loading…

Następne Przeloty (najbliższe 24 godziny)

TLE

ŚwieżeSource: Space-Track

Epoka: Sep 14, 2026, 06:53 UTC

1 60758U 24140EH  26257.28688513  .00000388  00000-0  87971-4 0  9995
2 60758  89.0051 260.9602 0099587 324.1290  35.3257 14.51094138110839

Śledź CZ-6A DEB w czasie rzeczywistym z AllMySat

Download on the App Store